Regional Weather Roundup
Issued by NWS Cleveland, OH

Home | Current Version | Previous Version | Text Only | Print | Product List | Glossary On
Versions: 1 2 3 4 5 6 7 8 9 10 11 12 13 14 15 16 17 18 19 20 21 22 23 24 25 26 27 28 29 30 31 32 33 34 35 36 37 38 39 40 41 42 43 44 45 46 47 48 49 50
000
ASUS41 KCLE 261810
RWRCLE
OHIO REGIONAL WEATHER ROUNDUP
NATIONAL WEATHER SERVICE CLEVELAND, OH
100 PM EST WED NOV 26 2014

NOTE: "FAIR" INDICATES FEW OR NO CLOUDS BELOW 12,000 FEET WITH NO
SIGNIFICANT WEATHER AND/OR OBSTRUCTIONS TO VISIBILITY.

OHZ001>008-015>018-024>027-034-035-043-044-261900-
   NORTHWEST OHIO

CITY           SKY/WX    TMP DP  RH WIND       PRES   REMARKS
DEFIANCE       CLOUDY    31  22  69 CALM      30.11F
FINDLAY        CLOUDY    33  24  69 VRB5      30.09F WCI  29
TOLEDO EXPRESS CLOUDY    31  23  72 NE7       30.11F WCI  24
TOLEDO EXEC    CLOUDY    33  22  63 VRB6      30.12F WCI  28
LIMA           CLOUDY    32  23  69 E5        30.08F WCI  27
$$

OHZ009>014-019>023-028>033-038-089-261900-
   NORTHEAST OHIO

CITY           SKY/WX    TMP DP  RH WIND       PRES   REMARKS
CLE-HOPKINS    CLOUDY    35  25  66 SE5       30.10F
CLE-LAKEFRONT  CLOUDY    37  25  61 NE3       30.08F
CUY CO. ARPT   CLOUDY    37  28  70 NE7       30.08F
LORAIN-ELYRIA  CLOUDY    35  25  66 CALM      30.09F
ASHTABULA      CLOUDY    36  26  67 VRB7      30.08F
AKRON-CANTON   CLOUDY    36  26  67 NE5       30.04F
WOOSTER        CLOUDY    34  25  69 N7        30.06F WCI  28
MANSFIELD      CLOUDY    33  25  72 CALM      30.05F
YOUNGSTOWN     CLOUDY    34  28  79 NE5       30.04F WCI  30
$$

OHZ042-051>053-060>062-070>072-077>081-261900-
  SOUTHWEST OHIO

CITY           SKY/WX    TMP DP  RH WIND       PRES   REMARKS
CINC-COVINGTON CLOUDY    36  27  69 NE3       30.07F
CINC-LUNKEN    CLOUDY    36  28  73 E3        30.10F
HAMILTON       CLOUDY    36  27  69 CALM      30.10F
DAYTON         CLOUDY    32  25  75 NW5       30.09F WCI  27
WRIGHT-PAT AFB NOT AVBL
DAYTON GENERAL CLOUDY    33  26  75 NE3       30.07F
WILMINGTON     CLOUDY    33  26  75 NE6       30.06F WCI  28
$$

OHZ036-037-039>041-045>050-054>059-063>069-073>076-082>088-261900-
  CENTRAL AND SOUTHEAST OHIO

CITY           SKY/WX    TMP DP  RH WIND       PRES   REMARKS
COLUMBUS       CLOUDY    36  27  69 N6        30.06F
OSU AIRPORT    CLOUDY    35  26  69 N5        30.06F
BOLTON FIELD   CLOUDY    34  27  75 N5        30.06F WCI  30
RICKENBACK AFB CLOUDY    37  28  70 N6        30.05F
NEWARK         PTSUNNY   37  27  67 NE3       30.04F
MARION         CLOUDY    34  25  69 NE6       30.07F WCI  29
LANCASTER      MOSUNNY   39  28  64 NW6       30.05F
ZANESVILLE     CLOUDY    37  28  70 NW6       30.04F
NEW PHILLY     CLOUDY    38  28  67 N5        30.05F
$$


USA.gov is the U.S. government's official web portal to all federal, state and local government web resources and services.